• MPC Preparation (Info)

  • MPEC 2012-F71 : 2012 FE10

    The following Minor Planet Electronic Circular may be linked-to from your own Web pages, but must not otherwise be redistributed electronically.

    A form allowing access to any MPEC is at the bottom of this page.


    Read MPEC 2012-F70 Read MPEC 2012-F72


    M.P.E.C. 2012-F71                                Issued 2012 Mar. 25, 00:42 UT
    
         The Minor Planet Electronic Circulars contain information on unusual
             minor planets and routine data on comets.  They are published
       on behalf of Commission 20 of the International Astronomical Union by the
              Minor Planet Center, Smithsonian Astrophysical Observatory,
                              Cambridge, MA 02138, U.S.A.
    
                 Prepared using the Tamkin Foundation Computer Network
    
                                  MPC@CFA.HARVARD.EDU
                URL https://www.minorplanetcenter.net/    ISSN 1523-6714
    
                                       2012 FE10
    
    Observations:
         K12F10E  C2012 02 24.54071 11 21 42.222-02 00 04.36         20.1 rLEF071F51
         K12F10E  C2012 02 24.55061 11 21 41.707-02 00 04.15         20.2 rLEF071F51
         K12F10E  C2012 02 24.56084 11 21 41.171-02 00 03.99         20.5 gLEF071F51
         K12F10E  C2012 02 24.57102 11 21 40.632-02 00 03.76         20.6 gLEF071F51
         K12F10E* C2012 03 19.33959 10 56 53.706-01 09 46.17         19.7 wLEF071F51
         K12F10E  C2012 03 19.36750 10 56 51.728-01 09 40.38         19.7 wLEF071F51
         K12F10E  C2012 03 19.38147 10 56 50.719-01 09 37.90         19.8 wLEF071F51
         K12F10E KC2012 03 19.88979 10 56 16.56 -01 07 55.1                uEF071J95
         K12F10E KC2012 03 19.89383 10 56 16.20 -01 07 54.4          18.8  rEF071113
         K12F10E KC2012 03 19.89829 10 56 15.96 -01 07 53.2                uEF071J95
         K12F10E KC2012 03 19.90289 10 56 15.58 -01 07 52.6          18.9  rEF071113
         K12F10E KC2012 03 19.90595 10 56 15.42 -01 07 52.4          18.8 RuEF071J95
         K12F10E KC2012 03 19.91194 10 56 14.92 -01 07 50.5          18.8  rEF071113
         K12F10E KC2012 03 19.92101 10 56 14.27 -01 07 48.9          18.8  rEF071113
         K12F10E  C2012 03 20.01205 10 56 07.91 -01 07 29.3          19.9 VuEF071D03
         K12F10E  C2012 03 20.02324 10 56 07.18 -01 07 25.9          19.5 VuEF071D03
         K12F10E  C2012 03 20.03444 10 56 06.48 -01 07 23.4          19.2 VuEF071D03
         K12F10E  C2012 03 20.04554 10 56 05.49 -01 07 20.8          19.2 VuEF071D03
         K12F10E  C2012 03 20.05668 10 56 04.80 -01 07 19.2          19.7 VuEF071D03
         K12F10E  C2012 03 20.28593 10 55 49.75 -01 06 29.2                cEF071926
         K12F10E  C2012 03 20.28759 10 55 49.62 -01 06 29.0                cEF071926
         K12F10E  C2012 03 20.28926 10 55 49.51 -01 06 28.5                cEF071926
         K12F10E  C2012 03 20.30262 10 55 48.58 -01 06 25.8                cEF071926
         K12F10E  C2012 03 20.30428 10 55 48.46 -01 06 25.4                cEF071926
         K12F10E  C2012 03 20.30594 10 55 48.34 -01 06 25.1                cEF071926
         K12F10E  C2012 03 20.51660 10 55 34.58 -01 05 40.3          19.3 RoEF071300
         K12F10E  C2012 03 20.52125 10 55 34.29 -01 05 39.2          18.9 RoEF071300
         K12F10E  C2012 03 20.52356 10 55 34.10 -01 05 38.9          19.4 RoEF071300
         K12F10E  C2012 03 20.52819 10 55 33.76 -01 05 38.1          19.3 RoEF071300
    
    Observer details:
    113 Volkssternwarte Drebach, Schoenbrunn.  Observer A. Knoefel.  0.5-m f/5
        reflector + CCD.
    300 Bisei Spaceguard Center--BATTeRS.  Observers K. Nishiyama, S. Urakawa.
        1.0-m f/3.0 reflector + CCD.
    926 Tenagra II Observatory.  Observers S. Abe, J. K. Guo, N. Panwar,
        W. P. Chen, W. H. Ip.  Measurer S. Abe.  0.81-m f/7 Ritchey-Chretien + CCD.
    D03 Rantiga Osservatorio, Tincana.  Observers M. Zolnowski, M. Kusiak.  0.4-m
        f/3.8 reflector + CCD.  Parallax 10.5889, 0.71522, +0.69670.
    F51 Pan-STARRS 1, Haleakala.  Observers N. Primak, A. Schultz, S. Watters,
        J. Thiel, T. Goggia.  Measurer PS1 Science Consortium.  1.8-m
        Ritchey-Chretien + CCD.
    J95 Great Shefford.  Observer P. Birtwhistle.  0.40-m f/6.0 Schmidt-Cassegrain
        + CCD.
    
    Orbital elements:
    2012 FE10
    Epoch 2012 Mar. 14.0 TT = JDT 2456000.5                 MPC
    M 332.63651              (2000.0)            P               Q
    n   0.20290229     Peri.  303.60042     -0.35166438     +0.93368923
    a   2.8682132      Node   305.66716     -0.82900024     -0.34410634
    e   0.5124348      Incl.    4.76611     -0.43484568     -0.09907194
    P   4.86           H   18.0           G   0.15           U   7
    Residuals in seconds of arc
    120224 F51  0.0   0.0     120319 113  0.2+  0.2-    120320 926  0.2+  0.2-
    120224 F51  0.1+  0.0     120319 J95  0.5-  0.6-    120320 926  0.3+  0.1-
    120224 F51  0.0   0.0     120319 113  0.3-  0.0     120320 926  0.5+  0.2-
    120224 F51  0.1-  0.0     120319 113  0.5-  0.4-    120320 926  0.5+  0.2-
    120319 F51  0.2+  0.2+    120320 D03  0.6-  0.6-    120320 926  0.4+  0.2-
    120319 F51  0.4+  0.2+    120320 D03  0.2+  0.4+    120320 300  0.3+  0.3+
    120319 F51  0.2+  0.2-    120320 D03  1.4+  0.5+    120320 300  0.8+  0.5+
    120319 J95  0.3-  0.1+    120320 D03  1.9-  0.8+    120320 300  0.4+  0.3+
    120319 113  0.0   0.1-    120320 D03  0.7-  0.0     120320 300  0.2+  0.1+
    120319 J95  0.4-  0.2+    120320 926  0.4+  0.1-
    
    Ephemeris:
    2012 FE10                a,e,i = 2.87, 0.51, 5                   q = 1.3984
    Date    TT    R. A. (2000) Decl.     Delta      r     Elong.  Phase     V
    2012 02 24    11 22 08.9 -02 00 09   1.0700  2.0332   161.7     8.8    20.3
    ...
    2012 03 10    11 07 26.7 -01 38 31   0.9534  1.9431   173.2     3.5    19.7
    ...
    2012 03 18    10 58 24.3 -01 14 19   0.9132  1.8956   166.6     7.0    19.7
    ...
    2012 03 24    10 51 45.4 -00 53 03   0.8929  1.8603   159.6    10.7    19.8
    2012 03 25    10 50 41.7 -00 49 24   0.8903  1.8545   158.5    11.4    19.8
    2012 03 26    10 49 39.0 -00 45 45   0.8879  1.8486   157.3    12.0    19.8
    ...
    2012 04 01    10 43 51.7 -00 24 21   0.8778  1.8140   150.1    15.9    19.9
    ...
    2012 04 09    10 37 50.9 +00 00 21   0.8744  1.7686   141.0    20.9    20.0
    ...
    2012 04 24    10 33 31.5 +00 22 53   0.8916  1.6870   125.4    29.1    20.2
    
    Gareth V. Williams           (C) Copyright 2012 MPC           M.P.E.C. 2012-F71
    

    Read MPEC 2012-F70 Read MPEC 2012-F72


    MPEC number:

    Enter an MPEC number in one of the following forms:

    • 1997-B01 (the full form)
    • J97B01 (the packed version of the full form)
    • B01 (the abbreviated form)